[[{"header":{"parameterUnit":"m.s-1","parameterCategory":1,"la1":30.2992,"la2":30.254,"lo1":-89.0895,"lo2":-89.0443,"dy":0.0025,"dx":0.0025,"nx":19,"ny":19,"refTime":"2026-03-26T21:00:00:Z","depth":0,"parameterNumber":2,"parameterNumberName":"U-component_of_WINDS"},"data":[0,0,0,0.4442,0.4444,0.4525,0.4525,0.4629,0.463,0,0,0,0,0,0,0,0,0,0,0,0.4418,0.4418,0.4442,0.4444,0.4525,0.4525,0.4629,0.463,0,0,0,0,0,0,0,0,0,0,0,0.4417,0.4418,0.4419,0.4445,0.4525,0.4525,0.4629,0.4568,0,0,0,0,0,0,0,0,0,0,0.449,0.4466,0.4418,0.4419,0.4445,0.4525,0.4525,0.4565,0.4572,0.4593,0,0.461,0,0.4622,0.4637,0.4638,0,0,0,0.4446,0.446,0.4482,0.4419,0.4446,0.4524,0.4489,0.4569,0.4577,0.4602,0.4611,0.4615,0.4623,0.4638,0.4638,0.4751,0.4752,0,0,0.4441,0.4432,0.4477,0.4487,0.4473,0.4486,0.4491,0.4574,0.4584,0.4612,0.4618,0.4625,0.4639,0.4639,0.4751,0.4752,0,0,0,0.4427,0.4429,0.4449,0.4483,0.4497,0.4488,0.4494,0.458,0.4588,0.4619,0.4626,0.4639,0.464,0.4751,0.4751,0.4766,0,0,0,0.4425,0.4421,0.4447,0.4443,0.4496,0.4539,0.4499,0.4582,0.4591,0.4626,0.4639,0.4641,0.475,0.4751,0.4764,0.4775,0,0,0,0.4413,0.442,0.4431,0.4442,0.4476,0.4538,0.455,0.4584,0.4596,0.4638,0.4642,0.475,0.4751,0.4763,0.4773,0.4802,0,0,0,0.4398,0.4443,0.4431,0.4484,0.4475,0.4546,0.455,0.4603,0.4641,0.464,0.475,0.4751,0.4763,0.4771,0.4801,0.4826,0.4836,0,0,0.445,0.4449,0.4481,0.4473,0.4543,0.4534,0.4608,0.4651,0.4664,0.4722,0.4725,0.4765,0.4772,0.4802,0.489,0.4898,0,0,0,0.4495,0.4518,0.4538,0.4573,0.4606,0.4636,0.4669,0.4685,0.4735,0.4691,0.4783,0.4788,0.4806,0.4819,0.4825,0.4842,0.4756,0.4756,0.4756,0.4557,0.4569,0.4624,0.4647,0.468,0.4713,0.4742,0.477,0.4774,0.4796,0.4814,0.4865,0.488,0.4884,0.4901,0.4827,0.4827,0.4827,0.4827,0.4635,0.4671,0.4674,0.4728,0.4742,0.4788,0.4822,0.4824,0.487,0.4853,0.4869,0.485,0.4892,0.4908,0.4829,0.4828,0.4828,0.4828,0.4828,0.4678,0.4697,0.4715,0.4766,0.4805,0.4826,0.487,0.4882,0.4893,0.4909,0.493,0.4929,0.4931,0.4918,0.4918,0.4918,0.4918,0.4918,0.4918,0.4716,0.4735,0.477,0.4809,0.4833,0.4866,0.4899,0.4924,0.4954,0.4959,0.4959,0.4962,0.4893,0.4876,0.4921,0.4921,0.492,0.492,0.492,0.4792,0.4777,0.483,0.4854,0.4901,0.4939,0.4952,0.5001,0.5023,0.5044,0.5043,0.499,0.4991,0.4986,0.4972,0.5039,0.5039,0.5039,0.5039,0.4829,0.483,0.4888,0.4925,0.4963,0.498,0.5042,0.5069,0.5095,0.511,0.5102,0.5084,0.5078,0.5082,0.5075,0.5063,0.5152,0.5152,0.5152,0.4878,0.4883,0.4933,0.4956,0.4993,0.5026,0.5085,0.5129,0.5155,0.5157,0.5122,0.5117,0.5089,0.5079,0.508,0.5069,0.5046,0,0]},{"header":{"parameterUnit":"m.s-1","parameterCategory":1,"la1":30.2992,"la2":30.254,"lo1":-89.0895,"lo2":-89.0443,"dy":0.0025,"dx":0.0025,"nx":19,"ny":19,"refTime":"2026-03-26T21:00:00:Z","depth":0,"parameterNumber":3,"parameterNumberName":"V-component_of_WINDS"},"data":[0,0,0,-0.779,-0.779,-0.7825,-0.7826,-0.7868,-0.7869,0,0,0,0,0,0,0,0,0,0,0,-0.7778,-0.7778,-0.779,-0.7791,-0.7825,-0.7826,-0.7868,-0.7869,0,0,0,0,0,0,0,0,0,0,0,-0.7778,-0.7778,-0.7778,-0.7791,-0.7825,-0.7826,-0.7868,-0.7843,0,0,0,0,0,0,0,0,0,0,-0.7809,-0.7796,-0.7778,-0.7778,-0.7791,-0.7825,-0.7826,-0.7841,-0.7844,-0.7852,0,-0.7857,0,-0.7864,-0.7871,-0.7872,0,0,0,-0.7792,-0.7794,-0.7805,-0.7778,-0.7791,-0.7825,-0.781,-0.7843,-0.7846,-0.7855,-0.7858,-0.7859,-0.7864,-0.7872,-0.7872,-0.7909,-0.7909,0,0,-0.779,-0.7783,-0.7802,-0.7807,-0.7801,-0.7809,-0.7811,-0.7845,-0.7847,-0.7858,-0.786,-0.7865,-0.7872,-0.7872,-0.7909,-0.7909,0,0,0,-0.7783,-0.7782,-0.7792,-0.7805,-0.7811,-0.781,-0.7812,-0.7846,-0.785,-0.7861,-0.7865,-0.7872,-0.7873,-0.7909,-0.7909,-0.7908,0,0,0,-0.7782,-0.7778,-0.7791,-0.7787,-0.7811,-0.7829,-0.7812,-0.7847,-0.7851,-0.7865,-0.7872,-0.7873,-0.7909,-0.7909,-0.7908,-0.7909,0,0,0,-0.7776,-0.7777,-0.7781,-0.7787,-0.7801,-0.7828,-0.7834,-0.7848,-0.7854,-0.7872,-0.7873,-0.7909,-0.7909,-0.7908,-0.7908,-0.7917,0,0,0,-0.7767,-0.7779,-0.7781,-0.7797,-0.7801,-0.7827,-0.7834,-0.7854,-0.7869,-0.7872,-0.7909,-0.7909,-0.7907,-0.7908,-0.7917,-0.7924,-0.7926,0,0,-0.7779,-0.7781,-0.7791,-0.7793,-0.7818,-0.7823,-0.7847,-0.7867,-0.7875,-0.7897,-0.7898,-0.7908,-0.7908,-0.7917,-0.7938,-0.7939,0,0,0,-0.7792,-0.7799,-0.7807,-0.7821,-0.7837,-0.7851,-0.7868,-0.7875,-0.7895,-0.7885,-0.7913,-0.7914,-0.7919,-0.7923,-0.7924,-0.793,-0.791,-0.791,-0.791,-0.7799,-0.7809,-0.7826,-0.7841,-0.7854,-0.7872,-0.7884,-0.7898,-0.7903,-0.791,-0.7917,-0.7928,-0.7932,-0.7933,-0.7939,-0.7921,-0.7921,-0.7921,-0.7921,-0.7817,-0.7829,-0.7838,-0.7858,-0.7869,-0.7886,-0.7904,-0.7908,-0.7926,-0.7924,-0.7929,-0.7926,-0.7935,-0.794,-0.7921,-0.7921,-0.7921,-0.7921,-0.7921,-0.7823,-0.7831,-0.784,-0.7862,-0.7878,-0.7892,-0.791,-0.7919,-0.7927,-0.7933,-0.7942,-0.7942,-0.7943,-0.7936,-0.7936,-0.7936,-0.7936,-0.7936,-0.7936,-0.7826,-0.7836,-0.785,-0.7868,-0.7879,-0.7894,-0.7914,-0.7925,-0.7939,-0.7945,-0.7945,-0.7951,-0.7933,-0.7929,-0.7937,-0.7937,-0.7937,-0.7937,-0.7937,-0.7842,-0.784,-0.786,-0.7871,-0.7895,-0.7911,-0.7922,-0.7944,-0.7955,-0.7963,-0.7968,-0.7954,-0.7956,-0.7955,-0.7952,-0.7965,-0.7965,-0.7965,-0.7965,-0.7847,-0.7849,-0.7873,-0.789,-0.7908,-0.7921,-0.7945,-0.7961,-0.7976,-0.7984,-0.7983,-0.7979,-0.7978,-0.7981,-0.798,-0.7977,-0.7997,-0.7997,-0.7997,-0.7858,-0.7863,-0.7881,-0.7896,-0.7916,-0.7933,-0.7956,-0.7976,-0.7993,-0.7998,-0.799,-0.7989,-0.7983,-0.798,-0.7985,-0.7982,-0.7977,0,0]}]]